Location: Unspecified
(0.0000°N, 0.0000°E)
Time: 06:40:30
(UTC+00:00)

S-56A Canister/Altair - Pass Details

Date: 30 May 2024
Orbit: 637 x 2489 km, 38.9° (Epoch: 21 June)

Event Time Altitude Azimuth Distance (km) Brightness Sun altitude
Rises 11:09:19 0° 326° (NNW) 4,125 11.4 65.1°
Reaches altitude 10° 11:12:58 10° 337° (NNW) 2,853 10.8 65.6°
Maximum altitude 11:18:27 28° 35° (NE) 1,507 10.0 66.1°
Drops below altitude 10° 11:22:44 10° 94° (E) 2,184 10.1 66.5°
Sets 11:25:08 0° 107° (ESE) 3,001 10.6 66.7°
